EW6800 Weather Reports


Display with metric or nautical units.
time (UTC)temp
F
wind
direction
speed
MPH
gust
MPH
rain 1hr
in
rain 24hr
in
rain mn
in
humidity
%
barometer
mb
20260507101552 56 0 0.0 0.0 0.00 0.00 0.00 85 1018.5
20260507101047 56 0 0.0 0.0 0.00 0.00 0.00 85 1018.5
20260507100544 56 0 0.0 0.0 0.00 0.00 0.00 85 1018.4
20260507100215 56 0 0.0 0.0 0.00 0.00 0.00 84 1018.5
20260507095545 56 0 0.0 0.0 0.00 0.00 0.00 83 1018.6
20260507095045 56 0 0.0 0.0 0.00 0.00 0.00 83 1018.5
20260507094550 56 0 0.0 0.0 0.00 0.00 0.00 82 1018.6
20260507094045 57 0 0.0 0.0 0.00 0.00 0.00 82 1018.6
20260507093544 57 0 0.0 0.0 0.00 0.00 0.00 84 1018.7
20260507093059 57 0 0.0 0.0 0.00 0.00 0.00 83 1018.6
20260507092545 57 0 0.0 0.0 0.00 0.00 0.00 84 1018.6
20260507092048 56 0 0.0 0.0 0.00 0.00 0.00 85 1018.8
20260507091557 56 0 0.0 0.0 0.00 0.00 0.00 85 1018.8
20260507091044 56 0 0.0 0.0 0.00 0.00 0.00 85 1018.7
20260507090544 56 0 0.0 0.0 0.00 0.00 0.00 85 1018.8
20260507090157 56 0 0.0 0.0 0.00 0.00 0.00 84 1018.9
20260507085540 56 0 0.0 0.0 0.00 0.00 0.00 84 1018.9
20260507085047 56 0 0.0 0.0 0.00 0.00 0.00 85 1018.9
20260507084552 56 0 0.0 0.0 0.00 0.00 0.00 84 1019.0
20260507084044 56 0 0.0 1.0 0.00 0.00 0.00 84 1018.9
20260507083544 56 0 0.0 2.0 0.00 0.00 0.00 85 1019.0
20260507083052 55 309 0.0 2.0 0.00 0.00 0.00 85 1019.0
20260507082546 56 309 1.0 2.0 0.00 0.00 0.00 85 1019.1
20260507082044 56 309 1.0 3.0 0.00 0.00 0.00 85 1019.1
20260507081550 56 309 1.0 4.0 0.00 0.00 0.00 85 1019.1
20260507081044 55 309 2.0 4.0 0.00 0.00 0.00 85 1019.3
20260507080543 55 309 2.0 4.0 0.00 0.00 0.00 85 1019.1
20260507075543 55 309 2.0 4.0 0.00 0.00 0.00 87 1019.3
20260507075045 55 309 2.0 4.0 0.00 0.00 0.00 88 1019.2
20260507074552 55 309 3.0 5.0 0.00 0.00 0.00 89 1019.1
20260507074044 55 309 3.0 5.0 0.00 0.00 0.00 90 1019.2
20260507073545 55 309 3.0 5.0 0.00 0.00 0.00 91 1019.3
20260507073100 54 312 4.0 6.0 0.00 0.00 0.00 93 1019.3
20260507072545 54 311 4.0 6.0 0.00 0.00 0.00 94 1019.3
20260507072045 53 314 4.0 6.0 0.00 0.00 0.00 94 1019.3
20260507071556 53 315 3.0 6.0 0.00 0.00 0.00 94 1019.3
20260507071043 53 315 4.0 6.0 0.00 0.00 0.00 95 1019.3
20260507070544 53 313 3.0 6.0 0.00 0.00 0.00 96 1019.2
20260507070058 52 313 3.0 8.0 0.00 0.00 0.00 96 1019.4
20260507065547 52 315 5.0 8.0 0.00 0.00 0.00 96 1019.3
20260507065043 51 311 4.0 8.0 0.00 0.00 0.00 96 1019.3
20260507064551 51 315 4.0 6.0 0.00 0.00 0.00 96 1019.2
20260507064044 51 317 3.0 5.0 0.00 0.00 0.00 96 1019.3
20260507063545 50 314 3.0 5.0 0.00 0.00 0.00 96 1019.3
20260507063054 50 315 3.0 5.0 0.00 0.00 0.00 96 1019.3
20260507062544 51 315 3.0 5.0 0.00 0.00 0.00 96 1019.2
20260507062044 51 314 2.0 5.0 0.00 0.00 0.00 96 1019.3
20260507061552 50 314 2.0 6.0 0.00 0.00 0.00 96 1019.4
20260507061044 50 314 4.0 7.0 0.00 0.00 0.00 95 1019.3
20260507060543 51 310 3.0 8.0 0.00 0.00 0.00 96 1019.4
20260507060056 52 310 2.0 8.0 0.00 0.00 0.00 96 1019.4
20260507055545 52 313 4.0 8.0 0.00 0.00 0.00 96 1019.4
20260507055044 53 314 4.0 8.0 0.00 0.00 0.00 96 1019.4
20260507054551 52 311 6.0 8.0 0.00 0.00 0.00 96 1019.4
20260507054043 51 316 4.0 6.0 0.00 0.00 0.00 96 1019.4
20260507053544 52 311 1.0 3.0 0.00 0.00 0.00 96 1019.6
20260507053056 52 311 0.0 4.0 0.00 0.00 0.00 96 1019.5
20260507052543 51 312 1.0 4.0 0.00 0.00 0.00 96 1019.6
20260507052045 49 312 2.0 4.0 0.00 0.00 0.00 96 1019.6
20260507051552 49 304 2.0 3.0 0.00 0.00 0.00 95 1019.6
20260507051044 49 304 2.0 4.0 0.00 0.00 0.00 95 1019.6
20260507050544 49 303 2.0 5.0 0.00 0.00 0.00 95 1019.6
20260507050052 49 303 2.0 5.0 0.00 0.00 0.00 95 1019.6
20260507045547 49 304 2.0 5.0 0.00 0.00 0.00 96 1019.7
20260507045045 49 304 2.0 5.0 0.00 0.00 0.00 96 1019.7
20260507044559 49 304 2.0 5.0 0.00 0.00 0.00 96 1019.6
20260507044043 49 306 3.0 6.0 0.00 0.00 0.00 96 1019.6
20260507043543 49 310 3.0 8.0 0.00 0.00 0.00 96 1019.7
20260507043056 50 311 4.0 8.0 0.00 0.00 0.00 95 1019.5
20260507042544 50 309 5.0 8.0 0.00 0.00 0.00 95 1019.5
20260507042047 50 313 5.0 8.0 0.00 0.00 0.00 95 1019.5
20260507041550 50 314 5.0 11.0 0.00 0.00 0.00 95 1019.4
20260507041045 50 312 7.0 11.0 0.00 0.00 0.00 95 1019.3
20260507040547 50 309 7.0 11.0 0.00 0.00 0.00 95 1019.3
20260507040051 50 315 6.0 10.0 0.00 0.00 0.00 95 1019.2
20260507035544 50 309 7.0 10.0 0.00 0.00 0.00 95 1019.3
20260507035044 50 294 5.0 9.0 0.00 0.00 0.00 95 1019.2
20260507034551 50 315 5.0 9.0 0.00 0.00 0.00 95 1019.1
20260507034044 50 306 5.0 9.0 0.00 0.00 0.00 95 1019.3
20260507033546 50 309 5.0 9.0 0.00 0.00 0.00 95 1019.3
20260507033048 50 320 6.0 9.0 0.00 0.00 0.00 95 1019.1
20260507032544 51 314 6.0 9.0 0.00 0.00 0.00 95 1019.1
20260507032046 51 312 3.0 9.0 0.00 0.00 0.00 95 1019.1
20260507031547 51 315 5.0 9.0 0.00 0.00 0.00 95 1019.1
20260507031044 51 315 6.0 9.0 0.00 0.00 0.00 95 1018.9
20260507030548 51 316 6.0 9.0 0.00 0.00 0.00 95 1018.9
20260507030054 51 309 4.0 10.0 0.00 0.00 0.00 95 1018.9
20260507025547 51 316 6.0 11.0 0.00 0.00 0.00 95 1018.9
20260507025044 51 307 7.0 11.0 0.00 0.00 0.00 95 1018.9
20260507024554 51 295 6.0 11.0 0.00 0.00 0.00 95 1018.8
20260507024045 51 304 7.0 11.0 0.00 0.00 0.00 94 1018.8
20260507023544 51 308 7.0 11.0 0.00 0.00 0.00 94 1018.7
20260507023054 51 313 7.0 11.0 0.00 0.00 0.00 94 1018.8
20260507022544 51 311 7.0 11.0 0.00 0.00 0.00 94 1018.7
20260507022043 52 299 8.0 11.0 0.00 0.00 0.00 94 1018.8
20260507021549 52 309 7.0 11.0 0.00 0.00 0.00 94 1018.8
20260507021044 52 315 6.0 13.0 0.00 0.00 0.00 94 1018.8
20260507020544 52 318 8.0 13.0 0.00 0.00 0.00 93 1018.8
20260507020052 52 303 7.0 12.0 0.00 0.00 0.00 93 1018.9
20260507015544 52 300 7.0 12.0 0.00 0.00 0.00 93 1018.9
20260507015043 52 303 7.0 11.0 0.00 0.00 0.00 93 1018.9
20260507014550 53 300 6.0 10.0 0.00 0.00 0.00 92 1018.9
20260507014044 53 308 6.0 10.0 0.00 0.00 0.00 91 1018.9
20260507013544 54 301 5.0 10.0 0.00 0.00 0.00 91 1018.9
20260507013057 54 292 6.0 10.0 0.00 0.00 0.00 90 1018.9
20260507012543 55 300 6.0 10.0 0.00 0.00 0.00 90 1018.9
20260507012044 54 305 4.0 10.0 0.00 0.00 0.00 90 1018.9
20260507011553 54 319 5.0 10.0 0.00 0.00 0.00 90 1018.9
20260507011046 54 300 7.0 10.0 0.00 0.00 0.00 90 1018.9
20260507010544 54 307 4.0 12.0 0.00 0.00 0.00 90 1018.9
20260507010048 55 305 7.0 12.0 0.00 0.00 0.00 89 1018.9
20260507005544 55 309 6.0 12.0 0.00 0.00 0.00 88 1018.9
20260507005044 55 314 7.0 12.0 0.00 0.00 0.00 87 1019.0
20260507004552 56 311 8.0 11.0 0.00 0.00 0.00 87 1018.9
20260507004045 56 312 7.0 11.0 0.00 0.00 0.00 87 1018.8
20260507003547 56 308 8.0 11.0 0.00 0.00 0.00 87 1018.7
20260507003051 56 305 8.0 11.0 0.00 0.00 0.00 86 1018.7
20260507002544 56 306 6.0 10.0 0.00 0.00 0.00 86 1018.5
20260507002043 56 317 7.0 10.0 0.00 0.00 0.00 86 1018.7
20260507001548 57 298 6.0 11.0 0.00 0.00 0.00 85 1018.7
20260507001044 57 316 6.0 11.0 0.00 0.00 0.00 85 1018.7
20260507000546 57 314 6.0 11.0 0.00 0.00 0.00 84 1018.6
20260507000053 58 305 5.0 13.0 0.00 0.00 0.00 84 1018.7
20260506235543 58 304 5.0 13.0 0.00 0.00 0.00 83 1018.7
20260506235048 58 302 8.0 13.0 0.00 0.00 0.00 82 1018.7
20260506234555 59 298 4.0 9.0 0.00 0.00 0.00 81 1018.6
20260506234048 59 298 5.0 8.0 0.00 0.00 0.00 81 1018.6
20260506233544 60 285 5.0 9.0 0.00 0.00 0.00 80 1018.6
20260506233049 60 289 4.0 10.0 0.00 0.00 0.00 81 1018.7
20260506232543 60 299 4.0 10.0 0.00 0.00 0.00 81 1018.7
20260506232044 60 315 6.0 10.0 0.00 0.00 0.00 80 1018.7
20260506231552 60 311 5.0 9.0 0.00 0.00 0.00 79 1018.8
20260506231044 60 304 5.0 9.0 0.00 0.00 0.00 79 1018.8
20260506230543 60 308 5.0 10.0 0.00 0.00 0.00 80 1018.9
20260506230046 60 311 6.0 10.0 0.00 0.00 0.00 80 1018.9
20260506225544 60 297 5.0 10.0 0.00 0.00 0.00 80 1019.0
20260506225043 60 292 6.0 9.0 0.00 0.00 0.00 79 1019.1
20260506224600 60 306 5.0 10.0 0.00 0.00 0.00 80 1019.2
20260506224042 60 293 5.0 10.0 0.00 0.00 0.00 78 1019.2
20260506223546 61 315 5.0 10.0 0.00 0.00 0.00 77 1019.3
20260506223052 62 296 6.0 10.0 0.00 0.00 0.00 76 1019.2
20260506222547 62 298 6.0 10.0 0.00 0.00 0.00 75 1019.2
20260506222044 63 309 5.0 10.0 0.00 0.00 0.00 75 1019.3
20260506221554 63 288 5.0 9.0 0.00 0.00 0.00 75 1019.3
20260506221043 63 291 5.0 9.0 0.00 0.00 0.00 74 1019.3
20260506220544 64 308 4.0 9.0 0.00 0.00 0.00 74 1019.4
20260506220049 64 295 3.0 9.0 0.00 0.00 0.00 73 1019.4
20260506215544 64 304 5.0 9.0 0.00 0.00 0.00 73 1019.4
20260506215043 64 296 4.0 8.0 0.00 0.00 0.00 74 1019.4
20260506214607 64 324 3.0 8.0 0.00 0.00 0.00 73 1019.6
20260506214044 64 301 3.0 8.0 0.00 0.00 0.00 74 1019.5
20260506213544 64 304 3.0 9.0 0.00 0.00 0.00 74 1019.6
20260506213051 63 321 3.0 10.0 0.00 0.00 0.00 74 1019.6
20260506212544 63 298 5.0 10.0 0.00 0.00 0.00 73 1019.5
20260506212043 64 305 5.0 9.0 0.00 0.00 0.00 73 1019.7
20260506211548 64 309 4.0 9.0 0.00 0.00 0.00 73 1019.6
20260506211043 64 326 5.0 9.0 0.00 0.00 0.00 72 1019.7
20260506210543 65 309 5.0 8.0 0.00 0.00 0.00 72 1019.6
20260506210055 64 301 4.0 8.0 0.00 0.00 0.00 72 1019.7
20260506205544 64 319 3.0 9.0 0.00 0.00 0.00 72 1019.7
20260506205044 64 295 4.0 9.0 0.00 0.00 0.00 71 1019.7
20260506204604 65 309 4.0 8.0 0.00 0.00 0.00 71 1019.8
20260506204043 64 325 2.0 5.0 0.00 0.00 0.00 73 1019.7
20260506203544 64 328 2.0 7.0 0.00 0.00 0.00 71 1019.8
20260506203055 64 305 2.0 7.0 0.00 0.00 0.00 71 1019.8
20260506202543 64 333 3.0 8.0 0.00 0.00 0.00 72 1020.0
20260506202045 64 331 3.0 10.0 0.00 0.00 0.00 72 1020.0
20260506201551 64 307 3.0 10.0 0.00 0.00 0.00 70 1020.0
20260506201043 65 318 2.0 5.0 0.00 0.00 0.00 70 1020.0
20260506200544 64 153 2.0 5.0 0.00 0.00 0.00 71 1020.1
20260506200050 64 301 3.0 5.0 0.00 0.00 0.00 71 1020.1
20260506195543 64 276 2.0 5.0 0.00 0.00 0.00 69 1020.0
20260506195046 65 312 2.0 8.0 0.00 0.00 0.00 67 1020.0
20260506194600 66 305 3.0 8.0 0.00 0.00 0.00 66 1020.1
20260506194049 67 316 1.0 5.0 0.00 0.00 0.00 63 1020.0
20260506193544 68 355 1.0 4.0 0.00 0.00 0.00 62 1020.0
20260506193052 69 0 1.0 5.0 0.00 0.00 0.00 60 1020.0
20260506192558 68 78 1.0 5.0 0.00 0.00 0.00 60 1020.1
20260506192044 68 69 2.0 4.0 0.00 0.00 0.00 61 1020.1
20260506191555 67 0 2.0 7.0 0.00 0.00 0.00 60 1020.2
20260506191044 67 108 2.0 7.0 0.00 0.00 0.00 62 1020.2
20260506190543 67 138 2.0 7.0 0.00 0.00 0.00 61 1020.2
20260506190053 67 60 2.0 6.0 0.00 0.00 0.00 60 1020.2
20260506185543 67 90 2.0 6.0 0.00 0.00 0.00 63 1020.2
20260506185043 66 109 0.0 5.0 0.00 0.00 0.00 67 1020.2
20260506184556 66 141 1.0 5.0 0.00 0.00 0.00 67 1020.2
20260506184044 65 61 0.0 5.0 0.00 0.00 0.00 69 1020.3
20260506183545 63 0 1.0 5.0 0.00 0.00 0.00 72 1020.3
20260506183100 63 0 0.0 3.0 0.00 0.00 0.00 72 1020.3
20260506182543 62 317 1.0 3.0 0.00 0.00 0.00 74 1020.3
20260506182043 62 311 1.0 3.0 0.00 0.00 0.00 74 1020.5
20260506181559 62 320 0.0 3.0 0.00 0.00 0.00 74 1020.5
20260506181043 62 207 1.0 2.0 0.00 0.00 0.00 75 1020.3
20260506180544 61 190 1.0 2.0 0.00 0.00 0.00 75 1020.3
20260506180052 61 189 1.0 3.0 0.00 0.00 0.00 74 1020.2
20260506175543 61 0 0.0 3.0 0.00 0.00 0.00 76 1020.3
20260506175047 60 0 0.0 1.0 0.00 0.00 0.00 77 1020.3
20260506174555 60 0 0.0 4.0 0.00 0.00 0.00 77 1020.3
20260506174046 59 0 1.0 4.0 0.00 0.00 0.00 78 1020.2
20260506173544 59 289 1.0 4.0 0.00 0.00 0.00 78 1020.2
20260506173051 59 257 1.0 4.0 0.00 0.00 0.00 79 1020.2
20260506172543 58 233 0.0 3.0 0.00 0.00 0.00 79 1020.2
20260506172045 58 0 1.0 3.0 0.00 0.00 0.00 78 1020.2
20260506171557 58 281 1.0 4.0 0.00 0.00 0.00 79 1020.2
20260506171044 58 0 1.0 4.0 0.00 0.00 0.00 80 1020.3
20260506170544 58 246 0.0 5.0 0.00 0.00 0.00 80 1020.3
20260506170057 58 102 1.0 5.0 0.00 0.00 0.00 80 1020.3
20260506165543 57 0 1.0 6.0 0.00 0.00 0.00 80 1020.2
20260506165044 57 146 1.0 6.0 0.00 0.00 0.00 80 1020.3
20260506164601 57 150 2.0 6.0 0.00 0.00 0.00 80 1020.2
20260506164043 57 0 0.0 3.0 0.00 0.00 0.00 81 1020.2
20260506163543 57 0 0.0 5.0 0.00 0.00 0.00 82 1020.3
20260506163105 56 0 1.0 5.0 0.00 0.00 0.00 82 1020.2
20260506162543 56 157 2.0 5.0 0.00 0.00 0.00 81 1020.3
20260506162045 56 146 1.0 4.0 0.00 0.00 0.00 82 1020.2
20260506161604 56 0 2.0 4.0 0.00 0.00 0.00 82 1020.3
20260506161043 56 104 1.0 6.0 0.00 0.00 0.00 83 1020.2
20260506160544 56 143 1.0 6.0 0.00 0.00 0.00 83 1020.2
20260506160048 55 85 1.0 3.0 0.00 0.00 0.00 83 1020.2
20260506155543 55 82 1.0 3.0 0.00 0.00 0.00 84 1020.2
20260506155047 55 78 1.0 3.0 0.00 0.00 0.00 85 1020.1
20260506154608 54 0 1.0 3.0 0.00 0.00 0.00 86 1020.1
20260506154044 54 90 1.0 3.0 0.00 0.00 0.00 87 1020.2
20260506153544 53 84 1.0 4.0 0.00 0.00 0.00 88 1020.2
20260506153048 53 0 1.0 4.0 0.00 0.00 0.00 89 1020.2
20260506152545 53 0 1.0 3.0 0.00 0.00 0.00 89 1020.2
20260506152043 52 109 1.0 3.0 0.00 0.00 0.00 90 1020.1
20260506151558 52 111 1.0 3.0 0.00 0.00 0.00 92 1020.1
20260506151043 51 80 0.0 4.0 0.00 0.00 0.00 93 1020.2
20260506150547 51 80 1.0 4.0 0.00 0.00 0.00 93 1020.1
20260506150053 51 86 2.0 5.0 0.00 0.00 0.00 93 1020.2
20260506145546 50 71 2.0 5.0 0.00 0.00 0.00 93 1020.1
20260506145043 50 82 1.0 5.0 0.00 0.00 0.00 93 1020.1
20260506144601 50 85 2.0 4.0 0.00 0.00 0.00 93 1020.1
20260506144043 50 88 2.0 4.0 0.00 0.00 0.00 93 1020.1
20260506143544 50 77 2.0 5.0 0.00 0.00 0.00 94 1020.0
20260506143054 49 74 2.0 5.0 0.00 0.00 0.00 94 1020.0
20260506142547 49 78 2.0 5.0 0.00 0.00 0.00 94 1020.0
20260506142043 49 77 1.0 5.0 0.00 0.00 0.00 94 1020.0
20260506141551 49 69 2.0 5.0 0.00 0.00 0.00 94 1019.9
20260506141043 49 81 2.0 4.0 0.00 0.00 0.00 94 1020.0
20260506140543 49 82 1.0 4.0 0.00 0.00 0.00 94 1019.8
20260506140059 48 0 0.0 4.0 0.00 0.00 0.00 94 1019.8
20260506135543 48 100 0.0 3.0 0.00 0.00 0.00 94 1019.7
20260506135045 48 100 0.0 4.0 0.00 0.00 0.00 94 1019.8
20260506134557 48 100 0.0 4.0 0.00 0.00 0.00 94 1019.7
20260506134044 48 0 1.0 3.0 0.00 0.00 0.00 94 1019.6
20260506133543 48 88 1.0 3.0 0.00 0.00 0.00 94 1019.5
20260506133102 48 79 0.0 3.0 0.00 0.00 0.00 94 1019.4
20260506132543 48 41 0.0 3.0 0.00 0.00 0.00 94 1019.5
20260506132044 48 41 1.0 3.0 0.00 0.00 0.00 94 1019.3
20260506131552 48 39 1.0 3.0 0.00 0.00 0.00 94 1019.4
20260506131043 48 15 1.0 3.0 0.00 0.00 0.00 94 1019.3
20260506130544 48 14 1.0 2.0 0.00 0.00 0.00 94 1019.3
20260506130052 48 13 1.0 2.0 0.00 0.00 0.00 93 1019.3
20260506125543 48 13 1.0 3.0 0.00 0.00 0.00 93 1019.3
20260506125044 48 13 1.0 3.0 0.00 0.00 0.00 93 1019.3
20260506124549 48 13 1.0 3.0 0.00 0.00 0.00 93 1019.3
20260506124044 48 13 1.0 3.0 0.00 0.00 0.00 94 1019.2
20260506123548 48 355 1.0 2.0 0.00 0.00 0.00 93 1019.2
20260506123051 48 355 1.0 2.0 0.00 0.00 0.00 93 1019.1
20260506122544 48 355 1.0 2.0 0.00 0.00 0.00 93 1019.1
20260506122043 48 355 1.0 2.0 0.00 0.00 0.00 93 1019.1
20260506121554 49 355 1.0 2.0 0.00 0.00 0.00 93 1019.1
20260506121044 49 0 0.0 2.0 0.00 0.00 0.00 93 1019.0
20260506120544 49 355 0.0 2.0 0.00 0.00 0.00 93 1019.0
20260506120053 49 355 1.0 2.0 0.00 0.00 0.00 93 1019.0
20260506115544 49 333 1.0 2.0 0.00 0.00 0.00 93 1018.9
20260506115043 49 327 0.0 2.0 0.00 0.00 0.00 93 1019.0
20260506114601 49 327 0.0 2.0 0.00 0.00 0.00 93 1018.9
20260506114043 49 327 1.0 2.0 0.00 0.00 0.00 93 1018.9
20260506113543 49 0 1.0 2.0 0.00 0.00 0.00 93 1018.9
20260506113100 49 327 0.0 2.0 0.00 0.00 0.00 93 1018.8
20260506112544 49 0 0.0 2.0 0.00 0.00 0.00 93 1018.9
20260506112044 49 0 0.0 2.0 0.00 0.00 0.00 93 1018.8
20260506111602 49 0 1.0 2.0 0.00 0.00 0.00 93 1018.9
20260506111046 49 327 1.0 2.0 0.00 0.00 0.00 94 1018.8
20260506110544 49 327 1.0 2.0 0.00 0.00 0.00 94 1018.7
20260506110052 49 327 0.0 2.0 0.00 0.00 0.00 93 1018.7
20260506105544 49 327 0.0 2.0 0.00 0.00 0.00 93 1018.7
20260506105043 49 327 1.0 2.0 0.00 0.00 0.00 94 1018.6
20260506104556 49 327 1.0 2.0 0.00 0.00 0.00 94 1018.6
20260506104044 49 0 0.0 2.0 0.00 0.00 0.00 94 1018.7
20260506103543 49 0 0.0 1.0 0.00 0.00 0.00 94 1018.6
20260506103057 48 0 0.0 2.0 0.00 0.00 0.00 94 1018.6
20260506102544 48 0 0.0 2.0 0.00 0.00 0.00 94 1018.6
20260506102044 48 327 1.0 3.0 0.00 0.00 0.00 94 1018.7